This is the latest recevied weather packets stored in our database for station/object DB5ZQ. If no packets are shown the sender has not sent any weather packets the latest 1 day(s).
| Time | Temp. | Humidity | Pressure | Rain* | Wind** | Luminosity | Snow |
|---|---|---|---|---|---|---|---|
| 1778069051 | 20.56° C | 54% | 1001.3 hPa | 0 mm | - | - | - |
| 1778068150 | 20.56° C | 54% | 1001.4 hPa | 0 mm | - | - | - |
| 1778067249 | 18.33° C | 62% | 1001.4 hPa | 0 mm | - | - | - |
| 1778066949 | 18.33° C | 62% | 1001.4 hPa | 0 mm | - | - | - |
| 1778064847 | 18.33° C | 63% | 1001.6 hPa | 0 mm | - | - | - |
| 1778063946 | 18.33° C | 63% | 1001.7 hPa | 0 mm | - | - | - |
| 1778063646 | 18.33° C | 63% | 1001.7 hPa | 0 mm | - | - | - |
| 1778063045 | 17.78° C | 63% | 1001.6 hPa | 0 mm | - | - | - |
| 1778062745 | 17.78° C | 62% | 1001.7 hPa | 0 mm | - | - | - |
| 1778061844 | 18.33° C | 61% | 1001.6 hPa | 0 mm | - | - | - |
| 1778061544 | 18.33° C | 61% | 1001.7 hPa | 0 mm | - | - | - |
| 1778060643 | 18.33° C | 62% | 1001.5 hPa | 0 mm | - | - | - |
| 1778060343 | 18.33° C | 63% | 1001.6 hPa | 0 mm | - | - | - |
| 1778059742 | 17.78° C | 64% | 1001.6 hPa | 0 mm | - | - | - |
| 1778059442 | 17.78° C | 64% | 1001.6 hPa | 0 mm | - | - | - |
| 1778058841 | 17.78° C | 67% | 1001.7 hPa | 0 mm | - | - | - |
| 1778058541 | 17.22° C | 66% | 1001.8 hPa | 0 mm | - | - | - |
| 1778058241 | 17.22° C | 67% | 1001.7 hPa | 0 mm | - | - | - |
| 1778057640 | 17.22° C | 67% | 1001.7 hPa | 0 mm | - | - | - |
| 1778057340 | 17.22° C | 68% | 1001.6 hPa | 0 mm | - | - | - |
| 1778056439 | 16.67° C | 68% | 1001.6 hPa | 0 mm | - | - | - |
| 1778056139 | 17.22° C | 69% | 1001.5 hPa | 0 mm | - | - | - |
| 1778055538 | 16.67° C | 69% | 1001.4 hPa | 0 mm | - | - | - |
| 1778055238 | 17.22° C | 71% | 1001.4 hPa | 0 mm | - | - | - |
| 1778054637 | 16.67° C | 73% | 1001.4 hPa | 0 mm | - | - | - |
* Rain latest hour (hover to see other rain measurements)
** Current wind speed in m/s (hover to see current wind gust speed)